Regional Weather Roundup
Issued by NWS Upton, NY

Current Version | Previous Version | Graphics & Text | Print | Product List | Glossary Off
Versions: 1 2 3 4 5 6 7 8 9 10 11 12 13 14 15 16 17 18 19 20 21 22 23 24 25 26 27

000
ASUS41 KOKX 021108
RWROKX

REGIONAL WEATHER ROUNDUP
NATIONAL WEATHER SERVICE NEW YORK NY
600 AM EST FRI DEC 02 2016

NOTE: "FAIR" INDICATES FEW OR NO CLOUDS BELOW 12,000 FEET WITH NO
SIGNIFICANT WEATHER AND/OR OBSTRUCTIONS TO VISIBILITY.

NYZ071-072-176-178-NJZ106-104-021200-
NEW YORK CITY METRO AREA

CITY           SKY/WX    TMP DP  RH WIND       PRES   REMARKS
Central Park   PTCLDY    41  27  57 W5        29.91R
Wall St Helipt MOSUNNY   41  31  67 W12       29.91R
Bronx Bot Gard NOT AVBL
LaGuardia APRT PTCLDY    44  28  53 W15G25    29.88S
Kennedy INTL   PTCLDY    41  29  62 W16       29.90R
Breezy Point     N/A     39 N/A N/A W14G22      N/A  WCI  31
Newark/Liberty PTCLDY    40  28  62 W15       29.89R WCI  32
Teterboro      PTCLDY    39  27  62 S6        29.88R WCI  35
$$

NYZ177-179-078>081-021200-
LONG ISLAND NEW YORK

CITY           SKY/WX    TMP DP  RH WIND       PRES   REMARKS
Jones Beach      N/A     41 N/A N/A W13         N/A
Matinecock PT  NOT AVBL
Farmingdale    CLEAR     38  28  67 W9        29.89R WCI  31
MacArthur/ISP  PTCLDY    36  28  73 SW6       29.87R WCI  31
Shirley        CLEAR     37  29  72 W9        29.88R WCI  30
Westhampton    CLEAR     35  27  72 W6        29.88R WCI  30
Southampton    NOT AVBL
Bridgehampton  NOT AVBL
East Hampton     N/A     36  28  74 W6        29.85S WCI  31
Montauk          N/A     42  35  76 VRB7      29.85R
$$

NYZ052-065-067-021200-
HUDSON VALLEY

CITY           SKY/WX    TMP DP  RH WIND       PRES   REMARKS
White Plains   PTCLDY    38  27  64 W7        29.85R WCI  33
Newburgh       PTCLDY    36  30  80 W12G21    29.85R WCI  27
Montgomery     CLOUDY    34  28  79 SW7       29.85R WCI  28
Poughkeepsie   PTCLDY    38  28  67 SW8       29.83S WCI  32
Albany         MOCLDY    38  30  73 SW6       29.78S WCI  33
$$

NJZ001-105-106-008-010-013-015-019>022-104-021200-
NEW JERSEY

CITY           SKY/WX    TMP DP  RH WIND       PRES   REMARKS
Newark/Liberty PTCLDY    40  28  62 W15       29.89R WCI  32
Teterboro      PTCLDY    39  27  62 S6        29.88R WCI  35
Caldwell       PTCLDY    39  28  64 SW6       29.90R WCI  35
Somerville     PTCLDY    40  27  59 MISG      29.90R
Linden           N/A     40  27  61 W9        29.91R WCI  33
Sussex         CLOUDY    35  28  75 SW3       29.87R
Andover          N/A     35  27  72 VRB3      29.88R
Trenton        PTCLDY    39  27  62 W9        29.93R WCI  33
Millville      CLEAR     38  30  73 W7        29.97S WCI  33
Atlantic City  CLEAR     40  28  62 W9        29.97R WCI  34
Wrightstown    CLEAR     38  28  67 W6        29.92R WCI  33
Toms River     CLEAR     36  28  73 W9        29.96R WCI  29
Belmar         CLEAR     37  28  70 W7        29.94R WCI  32
$$

PAZ047>061-062-071-021200-
EASTERN PENNSYLVANIA

CITY           SKY/WX    TMP DP  RH WIND       PRES   REMARKS
Philadelphia   PTCLDY    40  29  64 SW9       29.97R WCI  34
Allentown      PTCLDY    35  27  72 SW6       29.92R WCI  30
Scranton       PTCLDY    37  29  72 SW9       29.87R WCI  30
$$

CTZ002-004>006-009-010-012-RIZ004-006-007-MAZ004-011-015-021200-
SOUTHERN NEW ENGLAND
 IN CT

CITY           SKY/WX    TMP DP  RH WIND       PRES   REMARKS
Bradley INTL   MOCLDY    32  27  81 CALM      29.81R
Hartford       PTCLDY    39  29  67 SW3       29.82S
Danbury        PTCLDY    36  28  73 SW8       29.85R WCI  30
Wtrbury/Oxford CLOUDY    36  25  64 SW3       29.84R
Bridgeport       N/A    N/A N/A N/A MISG      29.86R
Meriden        CLOUDY    34  28  79 S7        29.83R WCI  28
New Haven      PTCLDY    39  30  70 W8        29.84R WCI  33
Chester          N/A     37  28  70 SW6       29.82R WCI  33
Groton         CLEAR     41  30  65 W6        29.83R
Wilimantic     CLEAR     37  29  72 CALM      29.82R

 IN RI

CITY           SKY/WX    TMP DP  RH WIND       PRES   REMARKS
Providence     PTCLDY    39  28  64 W12       29.80R WCI  32
Block Island   CLEAR     44  33  65 W13G21    29.83R
Westerly       PTCLDY    39  27  62 W3        29.83R
 IN MA

CITY           SKY/WX    TMP DP  RH WIND       PRES   REMARKS
Boston         CLEAR     40  32  73 W16G22    29.76R WCI  31
Worcester      CLEAR     34  27  75 W16       29.75R WCI  24
Westfield      CLOUDY    36  31  82 SW8       29.80R WCI  30
Provincetown   CLEAR     42  34  73 W18       29.77R
Nantucket      CLEAR     43  31  62 W15       29.79R
$$

ANZ330-335-338-340-345-350-353-355-021200-
COASTAL MARINE OBSERVATIONS


STATION/POSITION TIME  SKY/WX   TEMP    WIND        PRES    VSBY  WAVE
                                AIR SEA DIR/SP/G                  HT/PER
                 (UTC)          (F)     (DEG/KT/KT) (MB)    (MI)  (FT/S)
NY HARB ENTRANCE 1050            44 54  280/ 23/ 29 1011.9          4/ 4
20 S FIRE ISLAND 1050            46 55  290/ 21/ 27 1011.6          6/ 6
GREAT SOUTH BAY  1030            42 45                N/A
23 SSW MONTAUK P 1050            46 55  280/ 21/ 27 1010.8          6/ 6
15 E BARNEGAT LI 1030               55                N/A           4/ 4
HUDSON CANYON    0950            49 59              1011.6          7/ 7
KINGS POINT      1048            43 49              1011.6
EXECUTION ROCKS  1045            43     240/ 12/ 16   N/A
CENTRAL LI SOUND 1030            45 51  270/ 21/ 25   N/A           4/ 5
EASTERN LI SOUND NOT AVBL
ROBBINS REEF     1048            42     270/ 16/ 24 1012.3
$$


>>>>>>>>>>>>>>>>>>>>>>>>>>>> KEY <<<<<<<<<<<<<<<<<<<<<<<<<<<
>                                                          <
>     SKY/WX - Sky Condition/Present Weather               <
>     TMP    - Temperature in Fahrenheit                   <
>     DP     - Dew Point in Fahrenheit                     <
>     RH     - Relative Humidity in Percent                <
>     WIND   - Direction (from) and Speed in MPH           <
>     PRES   - Mean Sea Level Pressure (inches of Hg)      <
>     WCI    - Wind Chill Index                            <
>     VSB    - VISIBILITY IN MILES                         <
>     HX     - HEAT INDEX                                  <
>     TC     - TEMPERATURE IN CELSIUS                      <
>     VRB    - VARIABLE WIND DIRECTION                     <
>                                                          <
>>>>>>>>>>>>>>>>>>>>>>>>>>>> KEY <<<<<<<<<<<<<<<<<<<<<<<<<<<




USA.gov is the U.S. government's official web portal to all federal, state and local government web resources and services.